sat.trackr.live / text

‹ back to catalog

STARLINK-34621

NORAD 64774 · 2025-147V

PAYLOAD ACTIVE UNKNOWN

§ Identity

Operator
Country
US
Launch date
2025-07-08
Launch site
AFETR
Launch vehicle
Mass (kg)
RCS (m²)

Purposes: comms

External: N2YO · Heavens-Above · Gunter

§ Orbital elements

Epoch: 2026-09-20T21:17:47.570496Z

Period
93.85 min
Inclination
53.1610°
Eccentricity
0.0000673
Mean motion
15.34404794 rev/d
Perigee alt
462.2 km
Apogee alt
463.1 km
Semi-major
6,840.8 km
B*
4.2965e-4
RAAN
55.6332°
Arg perigee
76.9756°
Mean anomaly
283.1322°
Rev number
6,857

§ Raw data

STARLINK-346211 64774U 25147V   26263.88735614  .00014170  00000+0  42965-3 0  99992 64774  53.1610  55.6332 0000673  76.9756 283.1322 15.34404794 68574

JSON: /api/v1/satellites/64774 · /tle

For live sub-satellite position, see the globe view (requires WebGL).

§ Visibility from observer

Set your observer location to see the next 7 days of passes ≥ 10°. The values pass through the URL so the page stays shareable.

No JS? Fill the form by hand. The geolocation button needs JavaScript.